Tracking 20621 objects as of 29-Mar-2020
HD Live streaming from Space Station
objects crossing your sky now

ARIANE 2 DEB

Track ARIANE 2 DEB now!


NORAD ID: 33551
Int'l Code: 1989-006AT
Perigee: 1,463.1 km
Apogee: 35,605.5 km
Inclination: 9.0 °
Period: 651.9 minutes
Semi major axis: 24905 km
RCS: 0.1256 m2 (medium)
Launch date: January 27, 1989
Source: France (FR)
Launch site: FRENCH GUIANA (FRGUI)

Note: This is SATELLITE DEBRIS
aabbcc
Your satellite tracking list
Your tracking list is empty




NASA's NSSDC Master Catalog

Two Line Element Set (TLE):
1 33551U 89006AT  20089.35740917 -.00000178  00000-0  00000+0 0  9991
2 33551   9.0224  86.2079 6854452 101.9022   8.1133  2.20885025118386
Source of the keplerian elements: AFSPC